Stations météo

Publicité
Saarbrücken-Ensheim, Allemagne (10708): Température de l'air & dewpoint: 21.11.2020 03:00:00 - 27.11.2020 03:00:00 (CET)Saarbrücken-Ensheim, Allemagne (10708): Température de l'air 5cm & Température de l'air -5cm: 21.11.2020 03:00:00 - 27.11.2020 03:00:00 (CET)Saarbrücken-Ensheim, Allemagne (10708): Température de l'air -20cm & Température de l'air -100cm: 21.11.2020 03:00:00 - 27.11.2020 03:00:00 (CET)Saarbrücken-Ensheim, Allemagne (10708): Vitesse du vent & gusts: 21.11.2020 03:00:00 - 27.11.2020 03:00:00 (CET)Saarbrücken-Ensheim, Allemagne (10708): Direction du vent: 21.11.2020 03:00:00 - 27.11.2020 03:00:00 (CET)Saarbrücken-Ensheim, Allemagne (10708): reduced air pressure: 21.11.2020 03:00:00 - 27.11.2020 03:00:00 (CET)Saarbrücken-Ensheim, Allemagne (10708): visibility: 21.11.2020 03:00:00 - 27.11.2020 03:00:00 (CET)Saarbrücken-Ensheim, Allemagne (10708): Ensoleillement: 21.11.2020 03:00:00 - 27.11.2020 03:00:00 (CET)Saarbrücken-Ensheim, Allemagne (10708): Quantités de précipitations: 21.11.2020 03:00:00 - 27.11.2020 03:00:00 (CET)
Date & Time tt [°C] td [°C] tt 5cm [°C] tt -5cm [°C] tt -20cm [°C] tt -100cm [°C] ff [km/h] ff [knt] fx [km/h] fx [knt] dd ppp [hPa] vv [km] sd [min] rr [mm]
27.11.2020 03:00:00 0,3 -0,3 -1,7 2,4 4,3 9,5 8 5 13 7 ENE 1021,9 8 0 0,0
27.11.2020 02:00:00 1,3 0,3 0,3 2,7 4,4 9,5 7 4 13 7 ENE 1021,7 10 0 0,0
27.11.2020 01:00:00 1,5 0,9 1,0 2,6 4,4 9,5 9 5 15 8 ENE 1022,0 11 0 0,0
27.11.2020 00:00:00 1,0 0,5 -0,3 2,7 4,4 9,5 9 5 16 9 NE 1022,3 9 0 0,0
26.11.2020 23:00:00 1,8 1,1 1,5 2,9 4,5 9,5 11 6 16 9 ENE 1022,1 10 0 0,0
26.11.2020 22:00:00 1,9 1,2 1,6 2,7 4,5 9,5 11 6 19 10 ENE 1022,1 10 0 0,0
26.11.2020 21:00:00 1,5 1,2 1,2 2,5 4,6 9,5 11 6 19 10 ENE 1022,2 2,8 0 0,0
26.11.2020 20:00:00 0,9 0,5 0,0 2,7 4,7 9,5 10 6 21 11 ENE 1022,3 4,5 0 0,0
26.11.2020 19:00:00 0,7 0,2 -0,2 3,1 4,8 9,5 13 7 21 11 ENE 1022,4 6 0 0,0
26.11.2020 18:00:00 2,2 1,2 1,5 3,4 4,8 9,6 13 7 18 10 NE 1022,2 10 0 0,0
26.11.2020 17:00:00 2,0 0,9 0,5 3,9 4,8 9,6 11 6 15 8 ENE 1022,0 18 7 0,0
26.11.2020 16:00:00 4,5 2,4 3,6 4,4 4,7 9,6 10 5 15 8 E 1021,5 25 60 0,0
26.11.2020 15:00:00 4,1 2,2 3,9 4,7 4,5 9,6 11 6 18 10 E 1021,8 20 60 0,0
26.11.2020 14:00:00 3,3 2,2 4,8 4,1 4,3 9,6 11 6 16 9 E 1022,6 10 21 0,0
26.11.2020 13:00:00 1,5 1,2 2,5 3,4 4,2 9,6 11 6 16 9 ENE 1023,6 1,5 0 0,0
26.11.2020 12:00:00 0,9 0,7 2,1 2,5 4,1 9,6 11 6 18 10 ENE 1023,9 1,5 0 0,0
26.11.2020 11:00:00 -0,2 -0,4 0,0 1,9 4,2 9,6 13 7 16 9 E 1024,5 0,8 0 0,0
26.11.2020 10:00:00 -0,8 -1,0 -0,6 1,8 4,2 9,6 9 5 15 8 ENE 1024,5 0,2 0 0,0
26.11.2020 09:00:00 -1,1 -1,3 -1,0 1,8 4,3 9,6 8 4 15 8 ENE 1024,4 0,2 0 0,0
26.11.2020 08:00:00 -1,6 -1,8 -1,7 1,8 4,3 9,6 9 5 16 9 ENE 1024,2 0,2 0 0,0
26.11.2020 07:00:00 -1,6 -1,9 -1,7 1,9 4,4 9,6 8 4 13 7 ENE 1024,1 0,3 0 0,0
26.11.2020 06:00:00 -1,8 -2,0 -2,1 1,9 4,5 9,6 9 5 15 8 ENE 1024,1 0,3 0 0,0
26.11.2020 05:00:00 -1,6 -1,8 -2,0 2,0 4,6 9,6 8 5 14 8 ENE 1023,8 0,8 0 0,0
26.11.2020 04:00:00 -1,5 -1,7 -2,1 2,0 4,7 9,6 8 5 16 9 E 1023,7 2,5 0 0,0
26.11.2020 03:00:00 -1,5 -2,1 -2,5 2,1 4,8 9,6 12 6 16 9 ENE 1023,9 6 0 0,0
26.11.2020 02:00:00 -1,5 -2,2 -2,8 2,3 4,9 9,6 7 4 13 7 ENE 1023,5 12 0 0,0
26.11.2020 01:00:00 -0,7 -1,3 -1,8 2,4 5,0 9,7 8 4 13 7 E 1023,0 10 0 0,0
26.11.2020 00:00:00 -0,4 -1,2 -1,7 2,5 5,2 9,7 6 4 11 6 E 1023,0 15 0 0,0
25.11.2020 23:00:00 -0,1 -0,8 -1,4 2,7 5,3 9,7 8 4 13 7 E 1022,8 10 0 0,0
25.11.2020 22:00:00 0,8 -0,3 -1,4 2,9 5,5 9,7 10 5 13 7 ENE 1022,3 15 0 0,0
25.11.2020 21:00:00 1,5 0,3 -0,9 3,3 5,7 9,7 7 4 11 6 E 1021,8 20 0 0,0
25.11.2020 20:00:00 2,4 1,2 0,4 3,8 5,9 9,7 9 5 15 8 E 1021,3 20 0 0,0
25.11.2020 19:00:00 2,9 1,8 1,1 4,2 6,0 9,7 10 6 13 7 E 1021,3 25 0 0,0
25.11.2020 18:00:00 3,8 2,2 0,5 4,8 6,2 9,7 7 4 11 6 E 1020,9 30 0 0,0
25.11.2020 17:00:00 6,0 3,8 0,9 5,7 6,2 9,7 5 3 9 5 E 1020,1 10 0 0,0
25.11.2020 16:00:00 8,5 4,3 4,9 6,6 6,1 9,7 5 3 14 8 S 1019,6 10 28 0,0
25.11.2020 15:00:00 9,6 4,5 8,1 7,0 5,9 9,7 9 5 21 11 SSW 1019,5 40 60 0,0
25.11.2020 14:00:00 9,5 4,0 9,6 6,5 5,7 9,8 15 8 26 14 SSW 1019,8 10 60 0,0
25.11.2020 13:00:00 8,6 3,9 6,7 6,6 5,5 9,8 17 9 27 14 SSW 1020,0 40 60 0,0
25.11.2020 12:00:00 7,6 3,3 7,8 5,8 5,2 9,8 15 8 24 13 SSW 1020,3 10 60 0,0
25.11.2020 11:00:00 6,6 2,6 6,1 4,3 5,2 9,8 11 6 18 10 S 1020,9 10 60 0,0
25.11.2020 10:00:00 4,9 2,0 3,8 3,0 5,3 9,8 9 5 13 7 SSE 1021,0 10 60 0,0
25.11.2020 09:00:00 3,1 1,5 0,3 3,0 5,4 9,8 10 5 16 9 SSE 1021,0 15 37 0,0
25.11.2020 08:00:00 2,3 1,8 -0,6 3,4 5,6 9,8 9 5 13 7 ESE 1020,7 7 0 0,0
25.11.2020 07:00:00 0,6 0,6 -0,7 4,0 5,7 9,8 8 4 15 8 E 1020,7 1,2 0 0,0
25.11.2020 06:00:00 2,0 2,0 1,8 4,4 5,7 9,8 9 5 18 10 ENE 1020,4 0,3 0 0,0
25.11.2020 05:00:00 2,3 2,3 2,4 4,6 5,8 9,8 13 7 21 11 E 1020,5 0,3 0 0,0
25.11.2020 04:00:00 2,8 2,7 2,8 4,7 5,8 9,8 14 7 18 10 E 1020,7 0,2 0 0,0
25.11.2020 03:00:00 3,1 2,9 3,1 4,8 5,8 9,8 11 6 18 10 E 1021,1 0,3 0 0,0
25.11.2020 02:00:00 3,4 3,2 3,4 4,9 5,8 9,8 13 7 18 10 E 1021,2 0,8 0 0,0
25.11.2020 01:00:00 3,9 3,5 3,8 4,9 5,8 9,8 9 5 16 9 E 1021,7 3,0 0 0,0
25.11.2020 00:00:00 4,0 3,4 3,9 4,9 5,8 9,9 9 5 15 8 ESE 1022,1 9 0 0,0
24.11.2020 23:00:00 4,4 3,5 4,1 4,9 5,8 9,9 9 5 13 7 ESE 1022,2 10 0 0,0
24.11.2020 22:00:00 4,4 3,4 4,1 4,9 5,8 9,9 9 5 15 8 E 1022,5 10 0 0,0
24.11.2020 21:00:00 4,3 3,4 4,0 4,9 5,7 9,9 8 4 13 7 ESE 1022,9 10 0 0,0
24.11.2020 20:00:00 4,2 3,5 3,9 4,9 5,7 9,9 6 3 15 8 ESE 1023,0 10 0 0,0
24.11.2020 19:00:00 4,1 3,3 3,8 4,9 5,7 9,9 11 6 16 9 ESE 1023,2 10 0 0,0
24.11.2020 18:00:00 4,1 3,5 3,9 5,0 5,7 9,9 9 5 16 9 ESE 1023,3 9 0 0,0
24.11.2020 17:00:00 4,0 3,3 3,8 5,1 5,7 9,9 9 5 18 10 E 1023,4 4,5 0 0,0
24.11.2020 16:00:00 4,1 3,7 4,1 5,2 5,6 9,9 11 6 18 10 E 1023,6 3,2 0 0,0
24.11.2020 15:00:00 4,1 3,9 4,3 5,2 5,5 9,9 9 5 18 10 ENE 1024,3 1,3 0 0,0
24.11.2020 14:00:00 3,8 3,8 4,2 5,0 5,4 9,9 8 4 15 8 ENE 1024,9 0,3 0 0,0
24.11.2020 13:00:00 3,0 3,0 3,7 4,7 5,3 9,9 9 5 21 11 ENE 1025,6 0,3 0 0,0
24.11.2020 12:00:00 2,2 2,1 2,9 4,3 5,2 9,9 16 8 24 13 E 1026,8 0,3 0 0,0
24.11.2020 11:00:00 1,9 1,9 2,6 3,9 5,1 9,9 15 8 23 12 ENE 1027,5 0,3 0 0,0
24.11.2020 10:00:00 1,7 1,7 2,1 3,6 5,1 9,9 16 9 24 13 E 1027,3 0,3 0 0,0
24.11.2020 09:00:00 1,8 1,7 1,9 3,3 5,1 9,9 9 5 18 10 ENE 1027,5 0,3 0 0,0
24.11.2020 08:00:00 2,0 2,0 2,0 3,1 5,1 9,9 11 6 16 8 ENE 1027,5 0,3 0 0,0
24.11.2020 07:00:00 1,8 1,7 1,6 2,8 5,2 9,9 9 5 15 8 ENE 1027,4 0,3 0 0,0
24.11.2020 06:00:00 1,2 1,0 0,2 2,6 5,3 9,9 9 5 15 8 ENE 1027,7 0,4 0 0,0
24.11.2020 05:00:00 0,2 0,0 -1,3 2,7 5,4 9,9 9 5 13 7 ENE 1028,1 0,5 0 0,0
24.11.2020 04:00:00 0,8 0,4 -1,3 2,8 5,6 10,0 5 3 9 5 E 1028,4 0,5 0 0,0
24.11.2020 03:00:00 0,6 0,1 -0,8 3,0 5,8 10,0 5 3 9 5 E 1029,1 0,7 0 0,0
24.11.2020 02:00:00 1,9 1,6 -0,9 3,4 6,0 10,0 9 5 15 8 ENE 1029,1 8 0 0,0
24.11.2020 01:00:00 1,8 1,6 0,2 3,7 6,1 10,0 11 6 15 8 ENE 1029,8 0,9 0 0,0
24.11.2020 00:00:00 1,4 1,2 -0,2 4,0 6,3 10,0 8 4 9 5 E 1030,2 0,5 0 0,0
23.11.2020 23:00:00 2,6 2,4 -0,1 4,4 6,5 10,0 7 4 9 5 NE 1030,5 0,7 0 0,0
23.11.2020 22:00:00 3,9 3,8 -0,4 5,0 6,7 10,0 4 2 11 6 NE 1030,2 1,3 0 0,0
23.11.2020 21:00:00 4,3 4,0 1,7 5,7 6,8 10,0 9 5 11 6 E 1030,4 3,0 0 0,0
23.11.2020 20:00:00 5,5 5,1 2,6 6,4 6,9 10,0 5 3 11 6 E 1030,4 7 0 0,0
23.11.2020 19:00:00 6,0 5,2 5,4 6,7 6,9 10,0 5 3 9 5 E 1030,1 10 0 0,0
23.11.2020 18:00:00 6,6 5,5 6,0 7,0 6,9 10,0 5 3 9 5 ESE 1030,3 10 0 0,0
23.11.2020 17:00:00 6,9 5,7 6,5 7,4 6,8 10,0 4 2 9 5 - 1030,2 10 0 0,0
23.11.2020 16:00:00 7,0 5,7 7,0 7,6 6,7 10,0 5 3 8 4 E 1030,2 10 0 0,0
23.11.2020 15:00:00 6,9 5,6 7,2 7,7 6,5 10,0 3 2 8 4 NE 1030,1 10 0 0,0
23.11.2020 14:00:00 6,8 5,5 7,4 7,6 6,3 9,9 3 2 8 4 N 1030,2 10 0 0,0
23.11.2020 13:00:00 6,2 4,7 7,2 7,0 6,1 9,9 4 2 9 5 - 1030,6 10 0 0,0
23.11.2020 12:00:00 5,4 4,3 6,2 6,3 5,9 9,9 5 3 8 4 S 1030,9 8 0 0,0
23.11.2020 11:00:00 5,0 4,0 5,3 5,6 5,8 9,9 2 1 8 4 - 1031,2 7 0 0,1
23.11.2020 10:00:00 4,5 3,8 4,7 5,2 5,8 9,8 5 3 8 4 S 1031,0 3,5 0 0,2
23.11.2020 09:00:00 4,1 3,6 4,1 5,1 5,7 9,8 4 2 11 6 WSW 1030,5 3,5 0 0,3
23.11.2020 08:00:00 4,1 3,7 4,0 5,0 5,7 9,8 8 4 13 7 SW 1029,9 2,5 0 0,0
23.11.2020 07:00:00 4,3 3,9 4,2 5,0 5,7 9,8 5 3 11 6 SSW 1029,3 2,5 0 0,2
23.11.2020 06:00:00 4,6 4,1 4,5 5,0 5,6 9,9 8 4 11 6 WSW 1029,1 3,2 0 0,1
23.11.2020 05:00:00 4,9 3,7 4,5 5,0 5,6 9,8 8 4 8 4 SSW 1028,9 10 0 0,0
23.11.2020 04:00:00 4,9 2,7 4,7 4,9 5,6 9,9 7 4 11 6 SSW 1028,7 20 0 0,0
23.11.2020 03:00:00 5,0 2,6 4,8 4,9 5,5 9,9 2 1 5 3 - 1028,9 10 0 0,0
23.11.2020 02:00:00 4,9 2,7 4,7 4,8 5,5 9,9 2 1 4 2 - 1028,9 10 0 0,0
23.11.2020 01:00:00 4,7 2,0 4,5 4,7 5,4 9,9 4 2 8 4 SSE 1028,9 10 0 0,0
23.11.2020 00:00:00 4,9 2,3 4,5 4,7 5,4 9,9 4 2 13 7 - 1029,0 10 0 0,0
22.11.2020 23:00:00 4,7 2,0 4,5 4,6 5,4 9,9 5 3 5 3 SW 1029,1 25 0 0,0
22.11.2020 22:00:00 4,5 2,2 4,2 4,6 5,3 10,0 5 3 8 4 SSW 1029,5 10 0 0,0
22.11.2020 21:00:00 4,4 2,1 3,9 4,5 5,3 10,0 4 2 8 4 - 1029,0 10 0 0,0
22.11.2020 20:00:00 4,3 1,7 3,8 4,6 5,3 10,0 4 2 8 4 - 1029,1 10 0 0,0
22.11.2020 19:00:00 4,2 1,8 4,0 4,5 5,2 10,0 6 3 8 4 W 1029,3 25 0 0,0
22.11.2020 18:00:00 4,1 1,8 3,7 4,6 5,1 10,1 4 2 9 5 SSW 1029,2 20 0 0,0
22.11.2020 17:00:00 4,2 1,4 3,7 4,8 5,0 10,1 4 2 5 3 S 1028,7 10 0 0,0
22.11.2020 16:00:00 4,6 1,2 4,7 4,9 4,8 10,1 5 3 9 5 S 1028,9 10 0 0,0
22.11.2020 15:00:00 4,9 0,8 4,6 4,7 4,6 10,1 5 3 8 4 WSW 1029,2 25 0 0,0
22.11.2020 14:00:00 4,5 1,3 4,2 4,1 4,4 10,1 6 3 9 5 SSW 1029,4 20 0 0,0
22.11.2020 13:00:00 4,0 1,0 4,3 3,1 4,2 10,2 4 2 11 6 W 1030,2 20 0 0,0
22.11.2020 12:00:00 3,5 0,8 3,9 2,0 4,2 10,2 7 4 9 5 SSW 1030,8 17 0 0,0
22.11.2020 11:00:00 1,5 -0,2 1,5 1,7 4,2 10,2 5 3 9 5 SSE 1031,3 10 0 0,0
22.11.2020 10:00:00 0,4 -0,6 -0,1 1,7 4,2 10,2 4 2 8 4 SE 1031,4 10 0 0,0
22.11.2020 09:00:00 -0,3 -1,0 -0,4 1,7 4,3 10,2 2 1 9 5 - 1031,9 10 0 0,0
22.11.2020 08:00:00 -0,8 -1,5 -1,8 1,7 4,3 10,2 2 1 5 3 - 1031,8 10 0 0,0
22.11.2020 07:00:00 -1,4 -2,1 -2,1 1,7 4,3 10,3 2 1 8 4 - 1032,1 10 0 0,0
22.11.2020 06:00:00 -1,5 -2,0 -3,5 1,7 4,4 10,3 3 2 8 4 SSE 1031,8 12 0 0,0
22.11.2020 05:00:00 -1,0 -1,6 -3,2 1,7 4,5 10,3 4 2 8 4 - 1031,7 10 0 0,0
22.11.2020 04:00:00 -2,0 -3,0 -3,6 1,8 4,5 10,3 4 2 5 3 SE 1031,7 10 0 0,0
22.11.2020 03:00:00 -1,6 -2,1 -4,1 1,8 4,6 10,3 2 1 5 3 - 1031,9 10 0 0,0
22.11.2020 02:00:00 -1,5 -2,1 -4,0 1,9 4,7 10,3 3 1 5 3 SE 1032,0 15 0 0,0
22.11.2020 01:00:00 -1,9 -2,9 -3,6 2,0 4,7 10,4 4 2 4 2 E 1032,6 10 0 0,0
22.11.2020 00:00:00 -1,6 -3,0 -4,1 2,0 4,8 10,4 2 1 4 2 - 1032,8 10 0 0,0
21.11.2020 23:00:00 -1,3 -2,4 -3,5 2,1 4,9 10,4 2 1 3 1 SSE 1032,8 18 0 0,0
21.11.2020 22:00:00 -1,0 -2,5 -2,8 2,2 5,0 10,4 2 1 4 2 E 1033,2 18 0 0,0
21.11.2020 21:00:00 -0,3 -1,7 -2,9 2,4 5,2 10,4 3 2 8 4 W 1033,4 15 0 0,0
21.11.2020 20:00:00 -0,4 -1,8 -2,7 2,6 5,3 10,4 4 2 8 4 - 1033,6 10 0 0,0
21.11.2020 19:00:00 0,2 -1,1 -2,4 2,9 5,5 10,5 4 2 5 3 SE 1033,7 17 0 0,0
21.11.2020 18:00:00 2,1 0,3 -1,9 3,5 5,6 10,5 2 1 9 5 SW 1033,4 25 0 0,0
21.11.2020 17:00:00 3,2 0,2 -1,3 4,3 5,6 10,5 5 3 8 4 S 1033,3 10 28 0,0
21.11.2020 16:00:00 5,0 -1,9 4,5 5,1 5,5 10,5 4 2 13 7 - 1033,1 10 60 0,0
21.11.2020 15:00:00 6,2 0,0 5,0 5,6 5,2 10,6 3 2 9 5 S 1033,1 40 60 0,0
21.11.2020 14:00:00 5,5 -0,4 6,4 4,8 5,0 10,6 5 3 11 6 - 1034,0 10 60 0,0
21.11.2020 13:00:00 4,5 -0,4 3,3 4,0 4,9 10,6 7 4 11 6 SSW 1034,3 40 60 0,0
21.11.2020 12:00:00 4,2 -0,3 4,6 2,4 4,8 10,6 4 2 9 5 - 1035,0 10 60 0,0
21.11.2020 11:00:00 1,5 0,3 1,5 1,9 4,9 10,6 5 3 8 4 ESE 1036,2 10 45 0,0
21.11.2020 10:00:00 -1,2 -1,8 -1,3 1,9 4,9 10,6 2 1 5 3 - 1036,6 7 0 0,0
21.11.2020 09:00:00 -2,4 -3,0 -2,3 1,9 5,0 10,6 2 1 5 3 NW 1037,2 6 0 0,0
21.11.2020 08:00:00 -3,2 -3,6 -4,8 1,9 5,1 10,6 3 1 8 4 E 1037,2 3,0 0 0,0
21.11.2020 07:00:00 -3,0 -3,5 -4,0 2,0 5,2 10,6 5 3 8 4 W 1037,1 0,4 0 0,0
21.11.2020 06:00:00 -2,9 -3,6 -4,4 2,0 5,3 10,7 5 3 8 4 E 1036,9 0,6 0 0,0
21.11.2020 05:00:00 -2,4 -2,8 -5,2 2,1 5,4 10,7 2 1 5 3 NE 1036,9 0,9 0 0,0
21.11.2020 04:00:00 -1,8 -2,1 -5,0 2,2 5,5 10,7 5 3 5 3 E 1037,0 0,8 0 0,0
21.11.2020 03:00:00 -2,4 -2,4 -4,7 2,2 5,6 10,7 4 2 8 4 ENE 1037,2 0,9 0 0,0

tt = Température de l'air
td = dewpoint
tt 5cm = Température de l'air 5cm
tt -5cm = Température de l'air -5cm
tt -20cm = Température de l'air -20cm
tt -100cm = Température de l'air -100cm
ff = Vitesse du vent
fx = gusts
dd = Direction du vent
ppp = reduced air pressure
vv = visibility
sd = Ensoleillement
rr = Quantités de précipitations

stations d'obs. à proximité